Regional Weather Roundup
Issued by NWS Goodland, KS

Home | Current Version | Previous Version | Graphics & Text | Print | Product List | Glossary On
Versions: 1 2 3 4 5 6 7 8 9 10 11 12 13 14 15 16 17 18 19 20 21 22 23 24 25 26 27 28 29 30 31 32 33 34 35 36 37 38 39 40 41 42 43 44 45 46 47 48 49 50
000
ASUS43 KGLD 270859
RWRGLD

GOODLAND FORECAST AREA HOURLY WEATHER ROUNDUP
NATIONAL WEATHER SERVICE GOODLAND KS
300 AM MDT SAT AUG 27 2016

...OFFICIAL OBSERVATIONS...

CITY           SKY/WX    TMP DP  RH WIND       PRES   REMARKS
GOODLAND KS    FOG       52  52 100 S6        30.05F VSB 3/4
HILL CITY KS   CLOUDY    57  56  96 CALM      30.03F
IMPERIAL NEB   CLOUDY    50  49  96 CALM      30.08S FOG
MCCOOK NEB     MOCLDY    53  52  96 N6        30.05F
AKRON CO       CLEAR     53  51  93 W6        30.08S
BURLINGTON CO  FOG       52  50  93 SE7       30.08S VSB 3/4
LIMON CO       PTCLDY    42  41  96 N6        30.13S
$$

...UNOFFICIAL OBSERVATIONS...

CITY           SKY/WX    TMP DP  RH WIND       PRES   REMARKS
LENORA KS        N/A     57  32  39 MISG        N/A
SHARON SPRINGS   N/A     58  56  94 CALM        N/A
TRENTON NEB      N/A     51  32  48 MISG        N/A
KIT CARSON CO    N/A     53  49  85 CALM        N/A
YUMA CO          N/A     49  47  95 CALM        N/A
$$




USA.gov is the U.S. government's official web portal to all federal, state and local government web resources and services.